Weather in Gulyashor

Russia / Komi Republic     59°26′07″N   49°31′01″E
temp.,
°C
wind,
m/s
gust,
m/s
humid.,
%
clouds,
%
prec.,
mm/h
press.,
hPa
HPBL,
m
15 august, mon
mon1500:00+11ene11785 0.0 102310
03:00+10ese00825 0.0 102410
06:00+13n11735 0.0 102560
09:00+19nnw12515 0.0 1024592
12:00+22nw22422 0.0 10241432
15:00+23nw23410 0.0 10231686
18:00+20wnw11650 0.0 102311
21:00+15w11750 0.0 102411
16 august, tue
tue1600:00+13wsw11780 0.0 102511
03:00+13w227838 0.0 102618
06:00+16nw12755 0.0 102685
09:00+22nnw12565 0.0 1026552
12:00+24nnw23456 0.0 10261838
15:00+25n134291 0.0 10252210
18:00+20n1165100 0.0 102511
21:00+18ene2267100 0.0 102532
17 august, wed
wed1700:00+14se22755 0.0 102627
03:00+13sse127710 0.0 102611
06:00+16s12745 0.0 102663
09:00+22sw12552 0.0 1025437
12:00+26w22450 0.0 10241696
15:00+23wsw115795 0.0 1023510
18:00+20wnw277350 0.0 1023208
21:00+17w228149 0.0 102344
18 august, thu
thu1800:00+16wnw118365 0.0 102318
03:00+17nw11816 0.0 102320
06:00+17nnw13835 0.0 102393
09:00+23nw23595 0.0 1023555
12:00+26nnw22465 0.0 10231851
15:00+25w224972 0.0 10221026
18:00+21wnw116495 0.0 102311
21:00+17nne22856 0.1 102425
19 august, fri
fri1900:00+15nne019220 0.1 102411
03:00+15ene11955 0.1 102511
06:00+17e13915 0.0 102696
09:00+22e22665 0.0 1027529
12:00+25ene22493 0.0 10271436
15:00+26e22455 0.0 10261740
18:00+22se22683 0.0 102719
21:00+17sse11790 0.0 102811